[[{"header":{"parameterUnit":"m.s-1","parameterCategory":1,"la1":30.2991,"la2":30.254,"lo1":-89.0895,"lo2":-89.0444,"dy":0.0017,"dx":0.0017,"nx":28,"ny":28,"refTime":"2026-03-02T09:00:00:Z","depth":0,"parameterNumber":2,"parameterNumberName":"U-component_of_WINDS"},"data":[0,0,0,0,0,0,0,0,0,0,0,0,0,0,0,0,0,0,0,0,0,0,0,0,0,0,0,0,0,0,0,0,0,0,0,0,0,0,0,0,0,0,0,0,0,0,0,0,0,0,0,0,0,0,0,0,0,0,-3.4168,-3.4168,0,-3.4217,-3.4217,-3.4218,-3.4188,-3.4187,-3.4185,-3.4184,-3.4237,-3.424,-3.4243,0,0,0,0,0,0,0,0,0,0,0,0,0,-3.4052,-3.4054,-3.4167,-3.4168,-3.4169,-3.4217,-3.4217,-3.4218,-3.4189,-3.4187,-3.4185,-3.4183,-3.4236,-3.424,-3.4243,0,0,0,0,0,0,0,0,0,0,0,0,0,-3.4102,-3.4055,-3.4167,-3.416,-3.4159,-3.4217,-3.4217,-3.4218,-3.4189,-3.4187,-3.4185,-3.4183,-3.4235,-3.4239,-3.4243,-3.4312,0,0,-3.4256,-3.4258,0,0,0,0,0,0,0,0,-3.4099,-3.4106,-3.416,-3.416,-3.416,-3.4194,-3.4196,-3.425,-3.4189,-3.4178,-3.4184,-3.4182,-3.4225,-3.423,-3.4244,-3.4314,-3.4317,-3.4256,-3.4259,-3.4261,-3.4262,0,0,0,0,0,0,0,-3.4096,-3.4104,-3.4187,-3.4161,-3.4161,-3.4155,-3.416,-3.4206,-3.4213,-3.4179,-3.4177,-3.4183,-3.4225,-3.424,-3.4245,-3.4317,-3.4256,-3.426,-3.4263,-3.4264,-3.4449,-3.4451,0,0,0,0,0,0,-3.4092,-3.4101,-3.4186,-3.4189,-3.4124,-3.4159,-3.4164,-3.4185,-3.4212,-3.4214,-3.4184,-3.4181,-3.4234,-3.424,-3.4247,-3.4329,-3.4261,-3.4265,-3.4267,-3.4446,-3.4449,-3.4452,0,0,0,0,0,0,-3.409,-3.41,-3.4184,-3.4144,-3.4154,-3.4163,-3.4187,-3.4188,-3.4203,-3.4217,-3.4218,-3.4199,-3.4232,-3.4241,-3.4296,-3.433,-3.4266,-3.427,-3.4443,-3.4447,-3.445,-3.4493,0,0,0,0,0,0,-3.4087,-3.4099,-3.4124,-3.4145,-3.4157,-3.4231,-3.4189,-3.419,-3.421,-3.4206,-3.423,-3.4232,-3.4231,-3.429,-3.43,-3.4335,-3.4273,-3.444,-3.4445,-3.4449,-3.4489,-3.4498,-3.4506,0,0,0,0,0,-3.4083,-3.4135,-3.4125,-3.4136,-3.4188,-3.4233,-3.4239,-3.4236,-3.4212,-3.4238,-3.4248,-3.4232,-3.4325,-3.4296,-3.4307,-3.4343,-3.4438,-3.4444,-3.4449,-3.4485,-3.4496,-3.4506,0,0,0,0,0,0,-3.4118,-3.4137,-3.4127,-3.4187,-3.4209,-3.4228,-3.4259,-3.4248,-3.4277,-3.4273,-3.4269,-3.4275,-3.4332,-3.4344,-3.4311,-3.4412,-3.4378,-3.4386,-3.4402,-3.4413,-3.4421,-3.4416,-3.4277,0,0,0,0,0,-3.4132,-3.4166,-3.4182,-3.4233,-3.4245,-3.4251,-3.427,-3.4266,-3.4288,-3.4297,-3.4311,-3.4334,-3.4369,-3.4392,-3.4424,-3.4491,-3.4497,-3.4522,-3.4531,-3.4538,-3.4544,-3.4582,-3.4593,-3.447,-3.447,-3.4469,0,0,-3.4163,-3.4178,-3.4199,-3.4241,-3.4257,-3.4293,-3.4258,-3.4298,-3.4325,-3.4304,-3.4356,-3.4367,-3.4393,-3.4455,-3.4483,-3.4466,-3.458,-3.4545,-3.455,-3.4553,-3.4588,-3.46,-3.461,-3.4473,-3.4473,-3.4472,0,0,-3.4237,-3.4251,-3.4296,-3.4313,-3.4338,-3.4342,-3.4353,-3.4375,-3.4381,-3.4434,-3.4419,-3.4453,-3.4512,-3.4532,-3.4549,-3.4634,-3.4621,-3.4645,-3.4689,-3.4725,-3.4735,-3.4744,-3.4774,-3.4785,-3.4652,-3.4652,-3.4652,0,-3.4272,-3.4324,-3.4321,-3.4362,-3.4381,-3.4364,-3.441,-3.4427,-3.4462,-3.4477,-3.4458,-3.4533,-3.455,-3.4616,-3.4637,-3.4652,-3.4665,-3.4641,-3.4734,-3.4742,-3.475,-3.4779,-3.4791,-3.4655,-3.4654,-3.4654,-3.4654,0,-3.4366,-3.4404,-3.4437,-3.447,-3.4494,-3.4538,-3.4542,-3.4567,-3.4562,-3.4569,-3.4624,-3.4643,-3.468,-3.4696,-3.4692,-3.4763,-3.4752,-3.4734,-3.4699,-3.4765,-3.4792,-3.4803,-3.4659,-3.4658,-3.4657,-3.4656,0,0,-3.4461,-3.4493,-3.4506,-3.4521,-3.4549,-3.4578,-3.4622,-3.4658,-3.4679,-3.4705,-3.4742,-3.4794,-3.4778,-3.4799,-3.4797,-3.4829,-3.4896,-3.4807,-3.4808,-3.4823,-3.4976,-3.4988,-3.5001,-3.4888,-3.489,-3.4892,-3.4974,0,-3.4536,-3.4611,-3.461,-3.468,-3.4715,-3.4701,-3.474,-3.4762,-3.477,-3.4803,-3.4813,-3.4849,-3.4825,-3.4838,-3.4869,-3.4881,-3.4926,-3.4875,-3.4923,-3.4925,-3.4915,-3.5015,-3.5028,-3.5104,-3.4984,-3.4986,-3.4987,0,-3.4633,-3.4661,-3.4734,-3.4758,-3.4773,-3.4807,-3.4841,-3.4871,-3.4897,-3.4901,-3.4925,-3.4919,-3.4966,-3.4932,-3.4997,-3.4962,-3.4983,-3.4992,-3.4995,-3.4998,-3.4959,-3.502,-3.5128,-3.5139,-3.5004,-3.5003,-3.5001,0,-3.4694,-3.4751,-3.4802,-3.4816,-3.4845,-3.487,-3.4883,-3.4907,-3.4929,-3.4959,-3.4974,-3.501,-3.5029,-3.5058,-3.5063,-3.5037,-3.5128,-3.5094,-3.5133,-3.5133,-3.5151,-3.515,-3.5263,-3.5167,-3.5167,-3.5167,-3.5166,0,-3.4776,-3.4822,-3.483,-3.4861,-3.4912,-3.4913,-3.4964,-3.4976,-3.4997,-3.5032,-3.5023,-3.5057,-3.5061,-3.5096,-3.5101,-3.5155,-3.5164,-3.5169,-3.5169,-3.5169,-3.5168,-3.5181,-3.5175,-3.517,-3.5169,-3.5168,-3.5168,0,-3.4852,-3.4859,-3.4914,-3.4938,-3.4945,-3.4982,-3.5003,-3.5034,-3.5043,-3.5087,-3.5097,-3.5111,-3.5152,-3.516,-3.5209,-3.5212,-3.5276,-3.5272,-3.5267,-3.5266,-3.5304,-3.53,-3.5429,-3.5446,-3.5339,-3.534,-3.5341,0,-3.4904,-3.4938,-3.4966,-3.4988,-3.5003,-3.5039,-3.5062,-3.5065,-3.5089,-3.5122,-3.515,-3.519,-3.5222,-3.5288,-3.5304,-3.5342,-3.5338,-3.538,-3.5343,-3.5342,-3.5338,-3.5335,-3.5339,-3.5387,-3.5388,-3.5389,-3.5389,0,-3.4994,-3.4997,-3.5029,-3.5063,-3.509,-3.5118,-3.5144,-3.5163,-3.517,-3.5198,-3.524,-3.5265,-3.5315,-3.5355,-3.5393,-3.5409,-3.5401,-3.5401,-3.5412,-3.5411,-3.5407,-3.5409,-3.5285,-3.5398,-3.5397,-3.5396,-3.5396,-3.5396,-3.5059,-3.509,-3.5114,-3.5151,-3.5171,-3.5196,-3.5227,-3.524,-3.5274,-3.5314,-3.5315,-3.536,-3.5388,-3.5438,-3.5457,-3.5494,-3.5481,-3.5497,-3.5501,-3.5504,-3.5507,-3.5402,-3.5501,-3.5501,-3.5501,-3.5501,-3.55,0,-3.5149,-3.5165,-3.5199,-3.5235,-3.5265,-3.5255,-3.5284,-3.531,-3.5349,-3.5375,-3.5407,-3.5456,-3.5496,-3.5515,-3.5555,-3.5581,-3.5579,-3.5591,-3.5589,-3.5593,-3.5517,-3.5503,-3.5593,-3.5593,-3.5593,-3.5593,-3.5593,-3.5593,-3.5199,-3.525,-3.5256,-3.5318,-3.5333,-3.5377,-3.5395,-3.5419,-3.5439,-3.5494,-3.5526,-3.5539,-3.5563,-3.5605,-3.5642,-3.5646,-3.5661,-3.5676,-3.5679,-3.5608,-3.5598,-3.5589,-3.5576,-3.5679,-3.568,-3.5752,-3.5752,-3.5753]},{"header":{"parameterUnit":"m.s-1","parameterCategory":1,"la1":30.2991,"la2":30.254,"lo1":-89.0895,"lo2":-89.0444,"dy":0.0017,"dx":0.0017,"nx":28,"ny":28,"refTime":"2026-03-02T09:00:00:Z","depth":0,"parameterNumber":3,"parameterNumberName":"V-component_of_WINDS"},"data":[0,0,0,0,0,0,0,0,0,0,0,0,0,0,0,0,0,0,0,0,0,0,0,0,0,0,0,0,0,0,0,0,0,0,0,0,0,0,0,0,0,0,0,0,0,0,0,0,0,0,0,0,0,0,0,0,0,0,2.2191,2.2191,0,2.2239,2.224,2.224,2.2248,2.2248,2.2248,2.2247,2.2295,2.2296,2.2298,0,0,0,0,0,0,0,0,0,0,0,0,0,2.2106,2.2108,2.2191,2.2192,2.2192,2.2239,2.224,2.2241,2.2248,2.2248,2.2247,2.2247,2.2294,2.2296,2.2298,0,0,0,0,0,0,0,0,0,0,0,0,0,2.2148,2.2108,2.2191,2.2202,2.2203,2.2239,2.224,2.2241,2.2249,2.2248,2.2247,2.2247,2.2293,2.2296,2.2298,2.2326,0,0,2.2306,2.2307,0,0,0,0,0,0,0,0,2.2145,2.2151,2.22,2.2201,2.2203,2.2237,2.2227,2.2269,2.2249,2.2231,2.2247,2.2246,2.2276,2.228,2.229,2.2328,2.233,2.2306,2.2307,2.2308,2.2309,0,0,0,0,0,0,0,2.2142,2.2149,2.221,2.22,2.2202,2.2205,2.221,2.2235,2.2256,2.2233,2.2233,2.2239,2.2277,2.2288,2.2291,2.2331,2.2306,2.2308,2.231,2.231,2.2398,2.2399,0,0,0,0,0,0,2.2138,2.2146,2.2208,2.2211,2.2172,2.2207,2.2212,2.2227,2.2256,2.226,2.224,2.2239,2.2284,2.2288,2.2293,2.233,2.2308,2.2311,2.2312,2.2397,2.2398,2.2399,0,0,0,0,0,0,2.2136,2.2143,2.2206,2.2179,2.2187,2.2209,2.2225,2.2228,2.2239,2.2261,2.2265,2.2247,2.2283,2.2289,2.2319,2.2331,2.2312,2.2314,2.2396,2.2397,2.2399,2.2402,0,0,0,0,0,0,2.2133,2.2142,2.2152,2.2179,2.2189,2.2231,2.2226,2.2229,2.2244,2.2244,2.2269,2.2273,2.2283,2.2315,2.2321,2.2334,2.2316,2.2395,2.2397,2.2398,2.2401,2.2403,2.2405,0,0,0,0,0,2.213,2.215,2.2153,2.216,2.2202,2.2232,2.2237,2.2249,2.2245,2.2256,2.2271,2.2272,2.2329,2.2318,2.2325,2.2339,2.2394,2.2396,2.2398,2.24,2.2403,2.2405,0,0,0,0,0,0,2.2122,2.2153,2.2157,2.2186,2.2207,2.2233,2.2247,2.2251,2.2273,2.2272,2.2286,2.2291,2.2321,2.2333,2.2319,2.237,2.2361,2.2365,2.236,2.2363,2.2365,2.2362,2.2318,0,0,0,0,0,2.2124,2.2145,2.2172,2.2195,2.2205,2.2225,2.2238,2.2246,2.2267,2.2275,2.2292,2.2313,2.2336,2.235,2.2372,2.2403,2.241,2.2417,2.2419,2.242,2.2423,2.2444,2.2448,2.2405,2.2405,2.2405,0,0,2.2127,2.2147,2.2159,2.2194,2.2211,2.2234,2.2231,2.2254,2.2272,2.2279,2.2308,2.2322,2.2345,2.2377,2.2391,2.2388,2.2437,2.2423,2.2424,2.2426,2.2446,2.245,2.2454,2.2407,2.2406,2.2406,0,0,2.2145,2.2162,2.2184,2.2202,2.2229,2.2242,2.2248,2.2275,2.2285,2.2315,2.2322,2.2343,2.2381,2.2399,2.2413,2.2443,2.2446,2.245,2.2461,2.2481,2.2485,2.2488,2.2501,2.2505,2.2453,2.2453,2.2453,0,2.2145,2.218,2.2195,2.222,2.2236,2.2246,2.227,2.2286,2.2318,2.2329,2.2325,2.2376,2.2392,2.243,2.2438,2.2448,2.2456,2.2447,2.2483,2.2486,2.2489,2.2502,2.2506,2.2453,2.2453,2.2453,2.2453,0,2.2181,2.2205,2.2221,2.2254,2.2272,2.2295,2.2315,2.2332,2.234,2.2354,2.2386,2.2407,2.2435,2.2445,2.2451,2.2484,2.2482,2.248,2.2472,2.2494,2.2506,2.251,2.2454,2.2453,2.2453,2.2453,0,0,2.2191,2.2236,2.2242,2.2259,2.2291,2.231,2.2336,2.2365,2.238,2.2403,2.2426,2.246,2.2461,2.2477,2.2486,2.2504,2.253,2.2501,2.2502,2.2507,2.257,2.2572,2.2577,2.2533,2.2534,2.2534,2.2569,0,2.2214,2.2261,2.2278,2.2317,2.2341,2.2353,2.2376,2.2399,2.2414,2.2438,2.2454,2.2479,2.2477,2.2487,2.2505,2.2523,2.2543,2.252,2.2555,2.2556,2.2549,2.2583,2.2583,2.2614,2.2573,2.2574,2.2575,0,2.2246,2.2272,2.2314,2.2348,2.2359,2.2379,2.2409,2.2431,2.2458,2.2468,2.2489,2.2498,2.2527,2.2519,2.256,2.2545,2.256,2.2572,2.2573,2.2577,2.2567,2.2588,2.2624,2.263,2.2582,2.2581,2.2581,0,2.2252,2.2298,2.233,2.2344,2.2382,2.2397,2.2414,2.2441,2.2459,2.2485,2.2498,2.2527,2.2543,2.2566,2.2583,2.2575,2.2624,2.2616,2.2634,2.2634,2.2643,2.2643,2.2684,2.2652,2.2652,2.2652,2.2652,0,2.2276,2.2301,2.2334,2.2353,2.2384,2.2403,2.2433,2.245,2.2475,2.2499,2.2511,2.2533,2.2555,2.2581,2.2595,2.2629,2.2636,2.2645,2.2649,2.2645,2.2644,2.2655,2.2653,2.2654,2.2653,2.2653,2.2653,0,2.2287,2.2309,2.2345,2.2381,2.2391,2.2411,2.2442,2.2463,2.248,2.2511,2.2519,2.2546,2.2578,2.2598,2.2637,2.2647,2.2685,2.2687,2.2676,2.2678,2.2695,2.2694,2.2745,2.2754,2.2716,2.2716,2.2717,0,2.23,2.2321,2.236,2.2378,2.2396,2.2424,2.2444,2.2465,2.2485,2.2521,2.2537,2.257,2.2597,2.2648,2.2671,2.2702,2.2706,2.2722,2.271,2.2707,2.2708,2.2707,2.271,2.2724,2.2724,2.2724,2.2724,0,2.2323,2.2334,2.2362,2.2396,2.242,2.2446,2.2473,2.2487,2.2514,2.2536,2.257,2.2591,2.2634,2.2667,2.2701,2.2719,2.2727,2.2728,2.2735,2.273,2.2724,2.273,2.2682,2.2727,2.2726,2.2726,2.2726,2.2726,2.2336,2.2357,2.2389,2.2421,2.2445,2.2471,2.2493,2.2515,2.2543,2.2581,2.2592,2.2628,2.2658,2.2706,2.2725,2.2754,2.2752,2.276,2.2762,2.2764,2.2766,2.272,2.276,2.276,2.276,2.276,2.276,0,2.2361,2.2383,2.2413,2.2452,2.2478,2.2486,2.2517,2.2538,2.257,2.2599,2.2627,2.2667,2.2701,2.2729,2.2764,2.2782,2.2786,2.279,2.2789,2.2794,2.2764,2.2756,2.2786,2.2786,2.2786,2.2786,2.2786,2.2786,2.2377,2.2413,2.2429,2.2478,2.25,2.2536,2.2554,2.2579,2.2603,2.2648,2.2677,2.2696,2.2725,2.2763,2.2795,2.2802,2.2815,2.2818,2.2827,2.2798,2.2795,2.2793,2.2785,2.2821,2.2821,2.2854,2.2854,2.2855]}]]